Regional Weather Roundup
Issued by NWS Green Bay, WI

Home | Current Version | Previous Version | Text Only | Print | Product List | Glossary On
Versions: 1 2 3 4 5 6 7 8 9 10 11 12 13 14 15 16 17 18 19 20 21 22 23 24 25 26 27 28 29 30 31 32 33 34 35 36 37 38 39 40 41 42 43 44 45 46 47 48 49 50
000
ASUS43 KGRB 292300
RWRGRB

NORTH-CENTRAL AND NORTHEAST WISCONSIN REGIONAL WEATHER ROUNDUP
NATIONAL WEATHER SERVICE GREEN BAY WI
600 PM CDT SAT APR 29 2017

WIZ005-009-010>012-018-019-300000-
NORTH CENTRAL WISCONSIN

CITY           SKY/WX    TMP DP  RH WIND       PRES   REMARKS
IRONWOOD       CLOUDY    40  23  50 N8        30.33F
MANITOWISH WTR NOT AVBL
ARBOR VITAE    NOT AVBL
EAGLE RIVER    NOT AVBL
LAND O LAKES   NOT AVBL
RHINELANDER    PTSUNNY   49  24  37 NE6       30.24F
PHILLIPS       NOT AVBL
ANTIGO         NOT AVBL
TOMAHAWK       NOT AVBL
MERRILL        NOT AVBL
$$

WIZ013-073-300000-
NORTHEAST WISCONSIN

CITY           SKY/WX    TMP DP  RH WIND       PRES   REMARKS
IRON MOUNTAIN  PTSUNNY   49  16  26 NE10      30.27F
MARINETTE      CLOUDY    45  28  51 NE14      30.26F
$$

WIZ017-030-035>037-045-300000-
CENTRAL WISCONSIN

CITY           SKY/WX    TMP DP  RH WIND       PRES   REMARKS
MEDFORD        NOT AVBL
WAUSAU         CLOUDY    50  27  40 NE12G20   30.18F
MOSINEE        NOT AVBL
MARSHFIELD     CLOUDY    50  29  44 NE13      30.17F
WISC RAPIDS    CLOUDY    49  30  48 E10       30.21F
STEVENS POINT  NOT AVBL
WAUPACA        NOT AVBL
SHAWANO        NOT AVBL
CLINTONVILLE   NOT AVBL
WAUTOMA        CLOUDY    46  30  53 E10       30.24R
$$

WIZ038-039-048-051-300000-
FOX VALLEY

CITY           SKY/WX    TMP DP  RH WIND       PRES   REMARKS
NWS GREEN BAY  CLOUDY    47  33  58 NE15G23   30.25R
APPLETON       CLOUDY    46  25  42 NE14G21   30.23R
OSHKOSH        CLOUDY    45  29  53 NE14G25   30.24R
FOND DU LAC    CLOUDY    44  26  49 NE14G25   30.25R
$$

WIZ022-050-052-300000-
EAST CENTRAL WISCONSIN

CITY           SKY/WX    TMP DP  RH WIND       PRES   REMARKS
EPHRAIM        NOT AVBL
WASHINGTON ISL NOT AVBL
STURGEON BAY   CLOUDY    45  29  53 NE10      30.25F
MANITOWOC      NOT AVBL
SHEBOYGAN      CLOUDY    42  34  73 NE21      30.25R
$$

LMZ563-521-522-541>543-300000-
LAKESHORE

STATION/POSITION TIME  TEMP    WIND        PRES    VSBY  WAVE
                       AIR SEA DIR/SP/G                  HT/PER
                 (UTC) (F)     (DEG/KT/KT) (MB)    (MI)  (FT/S)
SHEBOYGAN LKSHOR 2200   40      20/ 25/ 29 1023.5F
KEWAUNEE LKSHORE 2230   42      20/ 14/ 19 1022.8F
NORTHPORT PIER   2240   42     330/  5/  6 1025.1F
N MID LAKE BUOY  2150   38 38   CALM  /  2 1027.3F         1
CHAMBERS ISLAND  2230   45      40/ 10/ 15 1024.7F
MENOMINEE LKSHOR 2230   44      60/ 12/ 14 1024.0F
$$




USA.gov is the U.S. government's official web portal to all federal, state and local government web resources and services.